{"data":{"norad_id":51114,"epoch":"2026-05-24T21:10:47.184384Z","epoch_age_seconds":91986,"freshness":"FRESH","line1":"1 51114U 22005L   26144.88249056  .00000777  00000+0  66937-4 0  9995","line2":"2 51114  53.2127 307.0770 0001528  94.0056 266.1111 15.08833891240389","mean_motion":15.08833891,"eccentricity":0.0001528,"inclination_deg":53.2127,"raan_deg":307.077,"arg_perigee_deg":94.0056,"mean_anomaly_deg":266.1111,"bstar":6.6937e-5,"rev_number":24038,"period_min":95.437941087446,"perigee_km":538.70500681952,"apogee_km":540.81911677281,"semimajor_km":6917.8990617962,"source":"CELESTRAK","updated_at":"2026-05-25T13:38:16.908125Z"}}